Погода Агинское

Погода Агинское : погода сейчас, прогноз погоды и архив. Всё, что Вы хотите узнать о погоде Агинское!

Хотите узнать прогноз погоды Агинское? Тогда Вам сюда: Погода Агинское

Поиск расширенной информации на нашем сайте:

Другие новости

Новости СМИ2

Главная страница сайта

Новости сайта

03.07.2017

Напоминаем, что на нашем специализированном сайте Метеоцентр.Азия вы можете получить высокодетализированные автоматические прогнозы погоды по пунктам России, СНГ и мира в авиационном формате (включающие направление и скорость ветра, видимость, явления погоды, количество и форму облачности, нижнюю и верхнюю границу облачности).


Погода Агинское - сегодня

Время (UTC), дата Ветер
(°,м/с) 
Видим.   Явления Облачность Т
(°С)
Тd
(°С)
f(%) Тe
(°С)
Pmin
(гПа)
dP
(гПа)
Po
(мм)
O2
(г/м3)
Тmin Tmax R s Состояние
почвы
18 16.05.18 310 (СЗ) 20000 м    ясно 
+2.6 -3.4 65 +2  1011.7  -0.2  698  279           
21 16.05.18 300 (СЗ) 20000 м    10/3 1000 м верхняя 
[Cu hum|Ci fib]
+1.5 -2.8 73 +1  1011.5  -0.5  698  280           
00 17.05.18 250 (З) 20000 м    1/0 верхняя 
[Ci fib]
+11.4 -0.8 43 +13  1008.9  0.3  698  270  +1.2        сухая 
03 17.05.18 130 (ЮВ) 20000 м    1/1 1000 м 
[Cu hum]
+20.9 -4.8 17 +21  1005.4  -0.8  697  261           
06 17.05.18 290 (З) 3{12}  20000 м    5/3 1000 м средняя, верхняя 
[Cu med, cong|Ac cuf|Ci fib]
+23 -6.5 13 +23  1003.2  -1.5  696  259           
09 17.05.18 310 (СЗ) 20000 м    3/3 1000 м 
[Cu med, cong]
+23.8 -8.3 11 +24  1002.1  -0.9  695  258           
15 17.05.18 280 (З) 20000 м    ясно 
+8.2 -3.7 43 +8  1009.9  698  273           
18 17.05.18 280 (З) 20000 м    ясно 
+3 -4.4 58 +2  1012.6  699  279           
21 17.05.18 240 (ЮЗ) 20000 м    ясно 
-0.2 -5.7 66 1014.3  0.7  699  282           
00 18.05.18 280 (З) 20000 м    3/0 верхняя 
[Ci fib]
+11.9 -3.8 33 +13  1010.8  0.1  699  270  -0.6        сухая 
12 18.05.18 250 (З) 8-13{25}  20000 м  пыльная буря на расстоянии  10/10 600 м кучево-дожд. 
[Cb cap]
+23.3 -3 17 +23  1001  0.9  695  258    +27.2       
15 18.05.18 330 (СЗ) 1{13}  20000 м    9/0 средняя 
[Ac und]
+17 -1.6 28 +18  1001.7  -0.8  694  263           
18 18.05.18 310 (СЗ) 1{13}  20000 м    3/0 верхняя 
[Ci fib]
+11.2 +0.4 47 +12  1002.7  -0.5  694  268           
21 18.05.18 280 (З) 20000 м    3/0 средняя, верхняя 
[Ac lent|Ci fib]
+5.9 -0.4 64 +7  1003.8  -0.4  693  273           
00 19.05.18 310 (СЗ) 20000 м    10/0 средняя, верхняя 
[Ac lent|Ci fib]
+15.3 +0.5 36 +17  1000.9  -0.2  693  264  +5.5        сухая 
03 19.05.18 210 (ЮЗ) 20000 м    10/0 средняя, верхняя 
[Ac lent|Cs]
+24.9 -1.5 17 +25  998.4  0.1  693  256           
06 19.05.18 300 (СЗ) 4{11}  20000 м    10/1 1000 м средняя, верхняя 
[Cu med, cong|Ac lent|Cs]
+25.2 -3.8 14 +25  998.1  -0.3  693  256           
09 19.05.18 330 (СЗ) 5{11}  20000 м    10/1 1000 м средняя, верхняя 
[Cu med, cong|Ac lent|Cs]
+24.7 -3.3 15 +25  998.7  0.4  693  256           
12 19.05.18 360 (С) 3{11}  20000 м    10/0 средняя 
[Ac As]
+22.1 -2.1 20 +22  1001.4  1.9  695  259    +26.6       
15 19.05.18 310 (СЗ) 20000 м    10/0 средняя, верхняя 
[Ac trans|Ci fib]
+13.4 -0.3 39 +15  1006.6  2.5  697  267           
18 19.05.18 220 (ЮЗ) 20000 м    3/3 1000 м 
[Sc]
+12.9 -0.5 40 +13  1007.8  1.1  698  268           
21 19.05.18 090 (В) 20000 м    1/1 1000 м 
[Sc]
+5.6 -1.2 62 +6  1011  0.9  698  276           
00 20.05.18 060 (СВ) 20000 м    3/3 1000 м 
[Sc]
+16 -1.1 31 +16  1008.5  0.5  699  266  +4.7        сухая 
03 20.05.18 070 (В) 4{10}  20000 м    3/0 средняя 
[Ac trans]
+21.8 +1.9 27 +22  1006.8  -0.2  698  260           
06 20.05.18 150 (ЮВ) 3{10}  20000 м    4/4 1000 м 
[Cu med, cong]
+25.4 +3.8 25 +25  1003.6  -2  697  256           
Время (UTC), дата Ветер
(°,м/с) 
Видим.   Явления Облачность Т
(°С)
Тd
(°С)
f(%) Тe
(°С)
Pmin
(гПа)
dP
(гПа)
Po
(мм)
O2
(г/м3)
Тmin Tmax R s Состояние
почвы

Для получения пояснительной информации подведите курсор к названию столбца.

ПОГОДА Агинское - архив

Всё, что Вы хотите узнать о погоде Агинское - удобно и подробно!

Выберите нужную дату (начиная с 1 января 2015* года) и нажмите кнопку "Найти".
Будут отображены архивные сводки погоды по пункту Агинское, начиная с указанной даты.


Отображать данные в формате CSV (для использования в таблицах Excel)


Внимание! Наш архив погоды предназначен исключительно для личного некоммерческого использования в познавательных целях. Если Вам необходимы официальные справки о состоянии погоды (для производственных, юридических, коммерческих и т.п. целей), обращайтесь в органы Росгидромета.

*Примечание: данная дата относится к архиву по метеостанциям СССР (Россия, СНГ, Балтия).
Архив по метеостанциям Зарубежной Европы и Азии (кроме Китая) хранится 10 дней, по другим регионам земного шара (Китай, Африка, Америка, Австралия, Океания) - 1 день.

Агинское - район местоположения метеостанции


Название, широта, долгота, высота метеостанции:
Агинское 51.1°ш. 114.5°д. 681 м над ур. моря [Российская Федерация]

Дополнительная информация

В oтличие oт бoльшинства пoгoдных сайтoв мы публикуем пoдрoбную метеoинфoрмацию в детальнoм прoфессиoнальнoм фoрмате.

Характеристики температуры и влажнoсти вoздуха измеряются на высoте 2 м в тени вдали oт зданий и деревьев.
Скoрoсть ветра измеряется на высoте 10 м (на урoвне рoста челoвека скoрoсть ветра ниже в 1.5-2 раза). Если метеoстанция нахoдится в гoрoде или в лесу, тo скoрoсть ветра занижена на 2-4 м/с пo сравнению с oткрытым местoм. Скoрoсть ветра над акватoриями крупных рек и oзёр, а также на вершинах хoлмoв на 2-5 м/с выше, чем в oбычных услoвиях.
Атмoсфернoе давление в разных тoчках местнoсти мoжет значительнo oтличаться oт давления на метеoстанции, в зависимoсти oт услoвий рельефа (при пoдъёме на 10 м давление пoнижается примернo на 1 мм рт.ст.).